Regional Weather Roundup
Issued by NWS Pendleton, OR

Home | Current Version | Previous Version | Text Only | Print | Product List | Glossary On
Versions: 1 2 3 4 5 6 7 8 9 10 11 12 13 14 15 16 17 18 19 20 21 22 23 24 25 26 27 28 29 30 31 32 33 34 35 36 37 38 39 40 41 42 43 44 45 46 47 48 49 50
000
ASUS46 KPDT 020125
RWRPDT
PENDLETON REGIONAL WEATHER ROUNDUP
NATIONAL WEATHER SERVICE PENDLETON OREGON
600 PM PDT WED JUL 1 2015

NOTE: FAIR INDICATES FEW OR NO CLOUDS BELOW 12,000 FEET WITH NO
SIGNIFICANT WEATHER AND/OR OBSTRUCTIONS TO VISIBILITY.

# INDICATES UNOFFICIAL STATION AND DATA

WAZ520-020210-
EAST SLOPES OF WASHINGTON CASCADES

CITY            SKY/WX      TMP DP  RH  WIND    PRES   REMARKS
#BULLFROG 2SW   N/A         87  49  27  N3      27.58S
#BUMPING DAM    N/A         86  N/A N/A CALM    N/A
#CLE ELUM HS    N/A         91  47  22  W6      29.89F HX 88
#CLE ELUM LAKE  N/A         89  47  24  CALM    29.82S
#CLIFFDEL 2NW   N/A         91  50  25  NW7     N/A    HX 88
#MANASTASH CYN  N/A         86  48  27  CALM    29.98S
#NELSON         N/A         89  51  27  SW1     29.83S
#NELSON 3SW     N/A         87  53  31  CALM    30.01F
#NILE           N/A         94  52  24  N1      29.10F HX 91
#RONALD 2NW     N/A         91  49  24  W2      29.90R HX 88
#SNOWDEN        N/A         92  19   7  CALM    N/A    HX 88
#TEANAWAY 4NE   N/A         94  58  30  SW6     N/A    HX 93
#TROUT LAKE 1NE N/A         94  47  20  E2      29.80F HX 90
$$

WAZ521-020210-
SIMCOE HIGHLANDS

CITY            SKY/WX      TMP DP  RH  WIND    PRES   REMARKS
#BICKLETON HS   N/A         89  40  18  E7      N/A
#CENTERVILLE 4W N/A         97  42  15  W3      29.68F HX 93
#CENTERVILLE 1SWN/A         97  46  18  N3      29.76F HX 93
#GOLDENDALE     N/A         97  31  10  SW5     N/A    HX 92
#GOLDENDALE 5WNWN/A         98  47  18  SW3     29.77F HX 94
#GOODNOE HILLS  N/A         103 45  14  SE8     N/A    HX 99
#LYLE 6NE       N/A         96  52  23  SW6     29.76F HX 93
$$

WAZ026-020210-
KITTITAS VALLEY

CITY            SKY/WX      TMP DP  RH  WIND    PRES   REMARKS
ELLENSBURG AP   PTCLDY      101 40  12  NE6     29.91F HX 96
YTC-OPS AREA    N/A         88  42  20  NE8     30.00F
#ELLENSBURG CWU N/A         99  46  17  N3      29.76F HX 95
#ELLENSBURG 3NE N/A         93  51  24  N1      29.91F HX 90
#ELLENSBURG 1E  N/A         94  41  16  CALM    N/A    HX 90
#KITTITAS 3S    N/A         92  63  38  CALM    29.78F HX 93
#THORP 6N       N/A         93  47  21  S5      29.84F HX 89
$$

WAZ027-020210-
YAKIMA VALLEY

CITY            SKY/WX      TMP DP  RH  WIND    PRES   REMARKS
SUNNYSIDE AP    SUNNY       98  44  16  CALM    29.84F HX 94
YAKIMA AIRPORT  SUNNY       100 50  19  E8      29.87F HX 97
#DONALD 2NE     N/A         110 27   6  CALM    28.71F HX 103
#GRANDVIEW      N/A         96  49  20  CALM    29.80F HX 93
#MABTON         N/A         97  53  23  CALM    29.84F HX 95
#MOXEE 2E       N/A         93  20   7  CALM    29.76F HX 88
#NACHES 2SW     N/A         95  58  29  E1      29.97S HX 94
#OUTLOOK DOT    N/A         N/A N/A N/A E1      N/A
#SELAH 8E       N/A         97  42  15  W6      N/A    HX 93
#TERRACE HTS    N/A         97  49  20  CALM    29.75F HX 94
#TOPPENISH      N/A         97  52  22  CALM    29.71F HX 94
#WAPATO 4NE     N/A         110 27   6  CALM    28.71F HX 103
#WEST VALLEY    N/A         96  51  22  CALM    29.77F HX 93
#W YAKIMA       N/A         97  52  22  CALM    29.79F HX 94
#WHITE SWAN 5E  N/A         93  62  36  NE3     29.79F HX 94
#WILEY CITY 3W  N/A         96  44  17  N1      29.86F HX 92
$$

WAZ028-020210-
LOWER COLUMBIA BASIN...WASHINGTON

CITY            SKY/WX      TMP DP  RH  WIND    PRES   REMARKS
PASCO           PTCLDY      100 48  17  N10     29.84F HX 96
RICHLAND AWOS   SUNNY       100 48  17  NE10    29.84F HX 96
#BASIN CITY 5SW N/A         95  63  35  NE3     29.85F HX 96
#BENTON CITY    N/A         95  54  25  CALM    29.71F HX 93
#CONNELL 5N     N/A         98  44  16  CALM    29.81F HX 94
#CONNELL 5NW    N/A         94  47  20  NW6     29.78F HX 90
#ELTOPIA 6NW    N/A         95  59  30  N5      28.85F HX 94
#KAHLOTUS       N/A         95  38  14  N15     29.80F HX 91
#KENNEWICK      N/A         87  49  27  N3      27.58S
#KENNEWICK 3S   N/A         96  50  21  CALM    29.81F HX 93
#PATERSON       N/A         98  54  23  NE1     29.78F HX 96
#PROSSER        N/A         100 36  11  N1      29.80S HX 95
#SAGEMOOR 2W    N/A         91  72  54  N1      29.67F HX 99
#TOUCHET 2S     N/A         94  61  34  NW2     29.79F HX 94
#WEST PASCO     N/A         101 54  21  E5      29.84F HX 99
$$

WAZ029-020210-
FOOTHILLS OF THE BLUES...WASHINGTON

CITY            SKY/WX      TMP DP  RH  WIND    PRES   REMARKS
WALLA WALLA AP  PTCLDY      100 45  16  W10     29.87F HX 96
#DAYTON SCHOOL  N/A         97  43  16  W1      29.90F HX 93
#LOWDEN 2SE     N/A         96  62  33  W5      29.79F HX 97
#PLEASANT VIEW 1N/A         96  43  16  W1      29.82F HX 92
#PRESCOTT       N/A         98  50  20  CALM    29.77F HX 95
#SUDBURY        N/A         100 N/A N/A CALM    N/A
#WHITMAN COLLEGEN/A         98  52  21  S3      29.84S HX 95
#WAITSBURG 5S   N/A         98  46  17  NW1     29.87F HX 94
#WAITSBURG 8N   N/A         100 33  10  S6      29.71F HX 95
#WALLA WALLA U  N/A         99  52  21  CALM    29.78F HX 97
#WHITMAN MISSIONN/A         97  54  24  NW5     29.81S HX 95
$$

WAZ030-020210-
BLUE MOUNTAINS...WASHINGTON

CITY            SKY/WX      TMP DP  RH  WIND    PRES   REMARKS
#DIXIE 5SE      N/A         82  47  29  S7      29.96S
$$

ORZ009-041-WAZ024-020210-
COLUMBIA RIVER GORGE

CITY            SKY/WX      TMP DP  RH  WIND    PRES   REMARKS
HOOD RIVER AP   PTCLDY      99  54  22  CALM    29.83F HX 97
THE DALLES AP   SUNNY       104 38  11  NW6     29.78F HX 99
#ARLINGTON AIRPON/A         98  47  18  NE9     29.78S HX 94
#ARLINGTON HS   N/A         100 49  18  CALM    29.68F HX 97
#CELILO DOT     N/A         107 64  25  W2      N/A    HX 111
#MOSIER 1S      N/A         97  45  17  N3      29.82S HX 93
#MURDOCK        N/A         99  59  27  NW5     29.77F HX 99

$$

ORZ510-020210-
NORTH CENTRAL OREGON

CITY            SKY/WX      TMP DP  RH  WIND    PRES   REMARKS
#CHENOWITH 1W   N/A         96  40  14  W10     N/A    HX 91
#COW CYN RST AREN/A         96  N/A N/A NW8     N/A
#DUFUR 9E       N/A         94  34  12  VRB1    29.83F HX 89
#GRASS VALLEY 1SN/A         97  51  21  NE7     29.80F HX 94
#KENT DOT       N/A         97  52  22  N7      N/A    HX 94
#MAUPIN SCHOOL  N/A         101 43  14  N6      29.83F HX 97
#MORO SCHOOL    N/A         97  56  26  CALM    29.91F HX 96
#SHANIKO 5WSW   N/A         94  48  21  N15     N/A    HX 91
#SHANIKO 4NW    N/A         91  36  14  N9      N/A    HX 87
#TYGH VALLEY 2NEN/A         101 43  14  N8      29.77S HX 97
#WAPANITIA AIRPON/A         98  41  14  NE10    29.78F HX 93
#WASCO DOT      N/A         101 57  24  N8      N/A    HX 101
#WASCO AIRPORT  N/A         99  N/A N/A N3      N/A
#WASCO 5NE      N/A         99  52  21  CALM    29.78F HX 97
$$

ORZ511-020210-
CENTRAL OREGON

CITY            SKY/WX      TMP DP  RH  WIND    PRES   REMARKS
BEND AIRPORT    N/A         N/A N/A N/A MISG    N/A
MADRAS AIRPORT  SUNNY       100 37  11  N8      29.94F HX 95
PRINEVILLE AP   PTCLDY      97  41  15  N12     29.97F HX 93
REDMOND AIRPORT SUNNY       99  45  16  N13     29.95F HX 95
#BEND 1SW       N/A         92  48  22  N2      N/A    HX 89
#BEND-AWBREY    N/A         97  48  19  NE2     29.75F HX 94
#BEND-KIM LN    N/A         95  50  22  N3      29.97F HX 92
#CROOKED RVR RANN/A         96  47  19  SE9     29.74F HX 92
#CULVER         N/A         96  51  22  NE1     29.89F HX 93
#LAKE BILLY CHINN/A         99  16   5  N2      29.93F HX 93
#POWELL BUTTE 3EN/A         93  52  25  NW9     N/A    HX 90
#POWELL BUTTE   N/A         93  51  24  N7      29.62F HX 90
#PRINEVILLE 3N  N/A         91  60  36  NW3     29.71F HX 91
#WARM SPRINGS   N/A         102 49  17  NW3     29.83F HX 99

$$


ORZ509-020210-
EAST SLOPES OF OREGON CASCADES

CITY            SKY/WX      TMP DP  RH  WIND    PRES   REMARKS
#CAMP SHERMAN   N/A         98  46  17  CALM    29.79R HX 94
#LA PINE 4NW    N/A         93  56  29  CALM    29.80S HX 91
#SISTERS AIRPOR N/A         96  57  27  N8      30.17S HX 95
#SISTERS ODOT   N/A         98  N/A N/A SW1     N/A
#SISTERS 1NW    N/A         96  43  16  W12     N/A    HX 92
#SISTERS 3N     N/A         95  49  21  N6      29.99S HX 92
#SUNRIVER       N/A         94  50  23  N2      29.65F HX 91
#TUMALO 3W      N/A         95  46  19  N6      29.63F HX 91
#WANOGA BUTTE D N/A         83  44  25  NE6     N/A

$$

ORZ044-020210-
LOWER COLUMBIA BASIN...OREGON

CITY            SKY/WX      TMP DP  RH  WIND    PRES   REMARKS
HERMISTON       PTCLDY      101 50  18  N9      29.84F HX 98
#BOARDMAN SCHOOLN/A         100 49  18  N2      29.83F HX 97
#BOARDMAN 8SW   N/A         99  52  21  N2      29.79F HX 97
#ECHO 8SW       N/A         99  52  21  N3      29.85F HX 97
#IONE SCHOOL    N/A         97  46  18  N3      29.84S HX 93
#IRRIGON 4NW    N/A         103 48  16  E3      N/A    HX 100
#UMATILLA SCHOOLN/A         102 66  31  E5      29.89F HX 107
#UMATILLA       N/A         100 53  21  N7      29.74F HX 98
$$

ORZ507-020210-
NORTHERN FOOTHILLS OF THE BLUES

CITY            SKY/WX      TMP DP  RH  WIND    PRES   REMARKS
PENDLETON AIRPT PTCLDY      99  45  16  N14     29.89S HX 95
#ADAMS 3WNW     N/A         96  48  20  N5      29.79F HX 93
#ATHENA         N/A         94  45  19  N2      29.83F HX 90
#CAYUSE         N/A         95  49  21  N7      29.78F HX 92
#HELIX SCHOOL   N/A         93  48  22  N2      29.81F HX 90
#HELIX 3N       N/A         92  45  20  N6      29.91S HX 88
#HELIX 6SW      N/A         95  50  22  N5      29.90F HX 92
#HOLDMAN 6E     N/A         94  48  21  SE5     29.62F HX 91
#M-F GROVE ELEM N/A         98  49  19  N1      29.87S HX 95
#M-FREEWATER 5SEN/A         97  53  23  W1      29.89S HX 95
#PDT AQUATIC CTRN/A         99  48  18  N7      29.92S HX 96
#PDT SUNRIDGE   N/A         99  49  19  N3      29.87F HX 96
#PENDLETON 7NW  N/A         96  59  29  CALM    26.72S HX 95
#PILOT ROCK     N/A         95  49  21  N7      29.92F HX 92
#TUTUILLA       N/A         95  54  25  NE5     29.82F HX 93
#UMAPINE 2E     N/A         93  66  41  SW1     29.82F HX 96
#WESTON SCHOOL  N/A         93  38  15  E5      29.79F HX 89

$$

ORZ508-020210-
SOUTHERN FOOTHILLS OF THE BLUES

CITY            SKY/WX      TMP DP  RH  WIND    PRES   REMARKS
#AJAX           N/A         94  45  19  N7      29.88S HX 90
#CONDON SCHOOL  N/A         92  51  25  N7      29.94F HX 89
#CONDON 5W      N/A         89  45  22  N8      29.99F
#FOSSIL SCHOOL  N/A         94  49  22  NE15G26 29.91S HX 91
#HEPPNER EOC    N/A         95  50  22  N8      29.72F HX 92
#HEPPNER 4NE    N/A         90  49  25  N5      29.80S HX 87
#LEXINGTON 2SE  N/A         98  51  21  N14     29.87F HX 95
#RUGGS 5NE      N/A         95  48  20  N8      30.17S HX 91
#RUGGS 2SW      N/A         92  49  23  NE7     29.80F HX 89

$$

ORZ502-503-020210-
BLUE MOUNTAINS

CITY            SKY/WX      TMP DP  RH  WIND    PRES   REMARKS
MEACHAM         PTCLDY      88  44  22  VRB3    30.06F
#BATTLE MTN DOT N/A         85  61  45  N3      N/A
#HEPPNER 15SE   N/A         85  49  29  CALM    30.00F
#LONG CREEK HS  N/A         91  35  14  CALM    29.96F HX 87
#N POWDER DOT   N/A         89  59  37  NE14    N/A
#PIKES PEAK     N/A         86  41  21  SW9     27.99S
#TOLLGATE       N/A         79  44  29  NE1     30.07S
#TROY SCHOOL    N/A         100 53  21  E1      29.60F HX 98
#UKIAH          N/A         90  53  28  N7      29.85S HX 88
#WESTON 4E      N/A         90  46  22  N1      29.77F HX 87
$$

ORZ505-020210-
JOHN DAY BASIN

CITY            SKY/WX      TMP DP  RH  WIND    PRES   REMARKS
JOHN DAY        PTCLDY      95  41  16  N8      30.01S HX 91
#JOHN DAY KJDY  N/A         98  79  55  W3      29.97S HX 117
#DAYVILLE SCHOOLN/A         101 39  12  N7      29.87F HX 96
#MITCHELL       N/A         98  55  24  CALM    30.11F HX 96
#MONUMENT HS    N/A         99  45  16  VRB6    29.88S HX 95
#MT. VERNON 5SE N/A         92  44  19  N3      29.98F HX 88
#WINLOCK        N/A         93  49  22  N8      30.06S HX 90
$$

ORZ506-020210-
OCHOCO AND JOHN DAY HIGHLANDS

CITY            SKY/WX      TMP DP  RH  WIND    PRES   REMARKS
#BUCK CREEK DOT N/A         99  52  21  W8      N/A    HX 97
#HORSE RIDGE DO N/A         94  42  17  NW12    N/A    HX 90
#KEYES SMT DOT  N/A         92  44  19  N2      N/A    HX 88
#PAULINA SCHOOL N/A         97  38  13  NW5     29.96F HX 92
#PINE MTN OBS   N/A         83  45  26  N8G24   N/A
#PRAIRIE CITY   N/A         94  49  22  CALM    29.68R HX 91
#SENECA         N/A         91  N/A N/A E8      N/A
#SENECA 9NW     N/A         89  44  21  E1      29.75F
$$

ORZ049-020210-
GRANDE RONDE VALLEY

CITY            SKY/WX      TMP DP  RH  WIND    PRES   REMARKS
LA GRANDE       PTCLDY      93  48  22  N9      29.96S HX 90
#ELGIN 3N       N/A         96  47  19  W1      29.95S HX 92
#IMBLER SCHOOL  N/A         92  50  24  N3      29.92F HX 89
#ISLAND CITY 4N N/A         95  55  26  CALM    29.86F HX 93
#LADD CYN DOT   N/A         95  58  29  NW8     N/A    HX 94
#UNION 1S       N/A         96  47  19  NW3     29.70F HX 92
$$

ORZ050-020210-
WALLOWA COUNTY

CITY            SKY/WX      TMP DP  RH  WIND    PRES   REMARKS
JOSEPH AIRPORT  N/A         90  37  15  N7      30.08S HX 86
#ENTERPRISE HS  N/A         91  44  20  W2      30.02F HX 87
#IMNAHA SCHOOL  N/A         96  44  17  VRB2    29.86S HX 92
#IMNAHA 10S     N/A         76  51  42  SW3     30.01S
#JOSEPH 3N      N/A         89  41  19  W9      30.07S
#JOSEPH 3W      N/A         88  42  20  CALM    29.95F
#LOSTINE        N/A         91  48  23  N3      29.61F HX 88
#MT HOWARD 8000 N/A         69  35  28  NW5     30.40F
#PROMISE 1S     N/A         90  52  27  E6      29.91S HX 87
#WALLOWA SCHOOL N/A         95  45  18  CALM    29.94F HX 91



$$



USA.gov is the U.S. government's official web portal to all federal, state and local government web resources and services.